| time (UTC) | temp C | wind direction | speed KPH | gust KPH | rain 1hr cm | rain 24hr cm | rain mn cm | humidity % | barometer mb |
| 20260506214512 | 16 | 134 | 6.4 | 19.3 | 0.00 | 4.39 | 4.39 | 83 | 1013.2 |
| 20260506213011 | 16 | 82 | 9.7 | 16.1 | 0.00 | 4.39 | 4.39 | 83 | 1013.2 |
| 20260506211510 | 16 | 125 | 8.0 | 19.3 | 0.00 | 4.39 | 4.39 | 83 | 1013.2 |
| 20260506210012 | 16 | 124 | 6.4 | 17.7 | 0.00 | 4.39 | 4.39 | 84 | 1013.2 |
| 20260506204509 | 16 | 159 | 4.8 | 17.7 | 0.00 | 4.39 | 4.39 | 84 | 1013.1 |
| 20260506203010 | 16 | 101 | 9.7 | 17.7 | 0.00 | 4.39 | 4.39 | 83 | 1012.9 |
| 20260506201511 | 16 | 153 | 6.4 | 20.9 | 0.00 | 4.39 | 4.39 | 84 | 1012.9 |
| 20260506200007 | 16 | 155 | 4.8 | 22.5 | 0.00 | 4.39 | 4.39 | 84 | 1012.7 |
| 20260506194507 | 16 | 98 | 6.4 | 12.9 | 0.00 | 4.39 | 4.39 | 84 | 1012.4 |
| 20260506193009 | 16 | 146 | 8.0 | 17.7 | 0.00 | 4.39 | 4.39 | 84 | 1012.2 |
| 20260506191510 | 16 | 127 | 8.0 | 20.9 | 0.00 | 4.39 | 4.39 | 84 | 1012.1 |
| 20260506190005 | 16 | 199 | 8.0 | 17.7 | 0.00 | 4.39 | 4.39 | 84 | 1012.0 |
| 20260506184505 | 16 | 112 | 4.8 | 16.1 | 0.00 | 4.39 | 4.39 | 83 | 1011.7 |
| 20260506183004 | 16 | 117 | 1.6 | 14.5 | 0.00 | 4.39 | 4.39 | 85 | 1011.6 |
| 20260506181501 | 16 | 138 | 9.7 | 22.5 | 0.00 | 4.39 | 4.39 | 85 | 1011.3 |
| 20260506180002 | 16 | 122 | 8.0 | 20.9 | 0.00 | 4.39 | 4.39 | 87 | 1011.2 |
| 20260506174502 | 16 | 122 | 4.8 | 16.1 | 0.00 | 4.39 | 4.39 | 87 | 1011.1 |
| 20260506173110 | 16 | 115 | 11.3 | 22.5 | 0.00 | 4.39 | 4.39 | 86 | 1011.0 |
| 20260506171600 | 16 | 105 | 8.0 | 22.5 | 0.00 | 4.39 | 4.39 | 87 | 1011.0 |
| 20260506171501 | 16 | 98 | 6.4 | 22.5 | 0.00 | 4.39 | 4.39 | 87 | 1011.0 |
| 20260506170109 | 16 | 10 | 8.0 | 20.9 | 0.00 | 4.39 | 4.39 | 86 | 1010.9 |
| 20260506164625 | 16 | 110 | 11.3 | 24.1 | 0.00 | 4.39 | 4.39 | 85 | 1011.0 |
| 20260506163108 | 17 | 120 | 12.9 | 22.5 | 0.00 | 4.39 | 4.39 | 83 | 1011.0 |
| 20260506161557 | 17 | 157 | 4.8 | 20.9 | 0.00 | 4.39 | 4.39 | 83 | 1010.9 |
| 20260506160113 | 17 | 148 | 11.3 | 25.7 | 0.00 | 4.39 | 4.39 | 81 | 1010.9 |
| 20260506154558 | 17 | 140 | 8.0 | 22.5 | 0.00 | 4.39 | 4.39 | 84 | 1010.8 |
| 20260506153055 | 17 | 176 | 8.0 | 20.9 | 0.00 | 4.39 | 4.39 | 84 | 1010.7 |
| 20260506151556 | 17 | 150 | 11.3 | 19.3 | 0.00 | 4.39 | 4.39 | 85 | 1010.8 |
| 20260506144553 | 18 | 233 | 4.8 | 16.1 | 0.00 | 4.39 | 4.39 | 82 | 1010.8 |
| 20260506143053 | 18 | 177 | 4.8 | 17.7 | 0.00 | 4.39 | 4.39 | 79 | 1010.7 |
| 20260506141551 | 18 | 193 | 11.3 | 20.9 | 0.00 | 4.39 | 4.39 | 78 | 1010.7 |
| 20260506140050 | 19 | 184 | 6.4 | 14.5 | 0.00 | 4.39 | 4.39 | 79 | 1010.8 |
| 20260506134551 | 18 | 283 | 8.0 | 22.5 | 0.00 | 4.39 | 4.39 | 80 | 1010.9 |
| 20260506133104 | 18 | 117 | 0.0 | 11.3 | 0.00 | 4.39 | 4.39 | 83 | 1011.0 |
| 20260506131555 | 18 | 287 | 3.2 | 12.9 | 0.00 | 4.39 | 4.39 | 80 | 1011.0 |
| 20260506130045 | 18 | 276 | 4.8 | 17.7 | 0.00 | 4.39 | 4.39 | 83 | 1010.9 |
| 20260506124544 | 18 | 293 | 6.4 | 16.1 | 0.00 | 4.39 | 4.39 | 83 | 1011.0 |
| 20260506123043 | 18 | 217 | 6.4 | 16.1 | 0.00 | 4.39 | 4.39 | 83 | 1010.8 |
| 20260506121548 | 18 | 266 | 8.0 | 19.3 | 0.00 | 4.39 | 4.39 | 85 | 1010.7 |
| 20260506120056 | 17 | 277 | 6.4 | 19.3 | 0.00 | 4.39 | 4.39 | 87 | 1010.6 |
| 20260506114540 | 17 | 276 | 6.4 | 17.7 | 0.00 | 4.39 | 4.39 | 88 | 1010.5 |
| 20260506113039 | 17 | 246 | 4.8 | 17.7 | 0.00 | 4.39 | 4.39 | 89 | 1010.5 |
| 20260506111545 | 17 | 272 | 6.4 | 16.1 | 0.00 | 4.39 | 4.39 | 89 | 1010.5 |
| 20260506110038 | 17 | 267 | 3.2 | 12.9 | 0.00 | 4.39 | 4.39 | 90 | 1010.5 |
| 20260506104547 | 17 | 121 | 1.6 | 14.5 | 0.00 | 4.39 | 4.39 | 90 | 1010.5 |
| 20260506103044 | 17 | 72 | 3.2 | 14.5 | 0.00 | 4.39 | 4.39 | 89 | 1010.6 |
| 20260506101535 | 17 | 108 | 3.2 | 9.7 | 0.00 | 4.39 | 4.39 | 87 | 1010.5 |
| 20260506100035 | 18 | 129 | 4.8 | 9.7 | 0.00 | 4.57 | 4.39 | 84 | 1010.5 |
| 20260506094534 | 17 | 249 | 0.0 | 12.9 | 0.00 | 4.57 | 4.39 | 85 | 1010.4 |
| 20260506093033 | 18 | 107 | 1.6 | 9.7 | 0.00 | 4.57 | 4.39 | 82 | 1010.4 |
| 20260506091531 | 17 | 133 | 3.2 | 11.3 | 0.00 | 4.57 | 4.39 | 83 | 1010.2 |
| 20260506090030 | 17 | 289 | 3.2 | 11.3 | 0.00 | 4.57 | 4.39 | 82 | 1010.0 |
| 20260506084606 | 17 | 129 | 0.0 | 9.7 | 0.00 | 4.57 | 4.39 | 87 | 1009.9 |
| 20260506083026 | 17 | 110 | 0.0 | 1.6 | 0.00 | 4.57 | 4.39 | 92 | 1009.8 |
| 20260506081534 | 16 | 110 | 0.0 | 6.4 | 0.00 | 4.57 | 4.39 | 93 | 1009.7 |
| 20260506073021 | 15 | 72 | 0.0 | 0.0 | 0.38 | 4.57 | 4.39 | 97 | 1009.7 |
| 20260506071519 | 14 | 72 | 0.0 | 0.0 | 0.48 | 4.57 | 4.39 | 98 | 1009.6 |
| 20260506061515 | 15 | 72 | 8.0 | 12.9 | 0.00 | 4.11 | 3.91 | 93 | 1009.0 |
| 20260506044609 | 13 | 42 | 0.0 | 4.8 | 0.00 | 5.49 | 3.91 | 93 | 1009.2 |
| 20260506043008 | 13 | 11 | 0.0 | 6.4 | 0.00 | 5.49 | 3.91 | 93 | 1009.3 |
| 20260506041506 | 13 | 342 | 1.6 | 6.4 | 0.00 | 5.49 | 3.91 | 91 | 1009.7 |
| 20260506040007 | 14 | 268 | 0.0 | 1.6 | 0.00 | 6.73 | 3.91 | 90 | 1010.2 |
| 20260506034506 | 14 | 287 | 4.8 | 11.3 | 0.00 | 6.73 | 3.91 | 87 | 1010.0 |
| 20260506033007 | 15 | 27 | 9.7 | 25.7 | 0.03 | 6.73 | 3.91 | 83 | 1009.4 |
| 20260506031504 | 15 | 331 | 20.9 | 38.6 | 0.03 | 6.73 | 3.91 | 83 | 1009.3 |
| 20260506030002 | 15 | 53 | 17.7 | 35.4 | 0.08 | 7.11 | 3.91 | 85 | 1009.5 |
| 20260506024605 | 14 | 354 | 12.9 | 32.2 | 0.25 | 7.11 | 3.91 | 92 | 1009.8 |
| 20260506023107 | 13 | 68 | 14.5 | 25.7 | 0.58 | 7.11 | 3.91 | 92 | 1010.2 |
| 20260506021612 | 13 | 52 | 0.0 | 6.4 | 0.89 | 7.11 | 3.91 | 96 | 1010.7 |
| 20260506020052 | 13 | 358 | 3.2 | 9.7 | 1.14 | 7.29 | 3.81 | 98 | 1011.0 |
| 20260506014550 | 13 | 342 | 3.2 | 6.4 | 1.75 | 7.14 | 3.66 | 98 | 1011.9 |
| 20260506013059 | 13 | 314 | 1.6 | 4.8 | 3.17 | 6.78 | 3.30 | 97 | 1012.2 |
| 20260506011606 | 13 | 310 | 6.4 | 9.7 | 3.02 | 6.50 | 3.02 | 97 | 1011.8 |
| 20260506010050 | 13 | 39 | 3.2 | 9.7 | 2.67 | 6.25 | 2.67 | 96 | 1011.7 |
| 20260506004540 | 14 | 39 | 9.7 | 22.5 | 1.83 | 5.44 | 1.83 | 96 | 1011.8 |
| 20260506003038 | 16 | 66 | 4.8 | 11.3 | 0.13 | 3.71 | 0.13 | 92 | 1011.8 |
| 20260506001535 | 16 | 7 | 0.0 | 4.8 | 0.00 | 3.61 | 0.00 | 92 | 1011.4 |
| 20260506000034 | 16 | 36 | 1.6 | 8.0 | 0.00 | 3.63 | 0.00 | 92 | 1011.5 |
| 20260505234531 | 15 | 329 | 0.0 | 3.2 | 0.00 | 3.63 | 0.00 | 93 | 1011.9 |
| 20260505233028 | 15 | 321 | 0.0 | 3.2 | 0.00 | 3.63 | 0.00 | 93 | 1012.5 |
| 20260505231541 | 15 | 333 | 0.0 | 3.2 | 0.00 | 3.63 | 0.00 | 93 | 1012.5 |
| 20260505230026 | 15 | 309 | 0.0 | 6.4 | 0.00 | 3.63 | 0.00 | 93 | 1012.8 |
| 20260505224523 | 16 | 284 | 1.6 | 6.4 | 0.00 | 3.63 | 0.00 | 92 | 1012.9 |
| 20260505223020 | 16 | 267 | 1.6 | 4.8 | 0.00 | 3.63 | 0.00 | 93 | 1013.1 |
| 20260505221519 | 16 | 283 | 0.0 | 3.2 | 0.00 | 3.63 | 0.00 | 93 | 1013.4 |
| 20260505220019 | 16 | 285 | 0.0 | 3.2 | 0.00 | 3.63 | 3.63 | 93 | 1013.2 |